Location: ????
(35.8986°N, 43.6986°E)
Time: 18:28:43
(UTC+00:00)

Daily predictions for brighter satellites

Satellite Brightness Start Highest point End
(mag) Time Altitude Azimuth Time Altitude Azimuth Time Altitude Azimuth
USA 307 4.2 16:30:07 10° NNW 16:33:55 30° NE 16:37:42 10° E
Ariane Rocket 4.1 16:30:40 10° SE 16:34:53 28° ENE 16:39:08 10° NNE
X-37B 1.9 16:32:14 10° WNW 16:35:08 32° SW 16:38:01 10° SSE
MetOp-A 4.2 16:30:04 10° SSE 16:35:20 65° ENE 16:40:38 10° N
Cosmos 1151 Rocket 3.2 16:31:36 10° S 16:35:51 56° E 16:40:09 10° NNE
Sich 1 3.0 16:31:37 10° N 16:36:01 82° E 16:40:25 10° S
Cosmos 1386 Rocket 4.5 16:32:06 10° N 16:38:13 82° E 16:44:25 10° S
CREW DRAGON DEMO-1 DEB 3.7 16:35:54 10° NNW 16:38:15 29° NE 16:40:37 10° E
Cosmos 1933 3.9 16:35:11 10° SSW 16:39:10 64° W 16:43:09 10° N
Cosmos 2082 Rocket 3.8 16:35:31 10° N 16:39:33 20° ENE 16:43:33 10° ESE
Cosmos 1666 Rocket 3.8 16:36:27 10° N 16:40:41 50° E 16:44:52 10° SSE
CZ-4 R/B 3.9 16:38:39 10° SSW 16:41:51 23° W 16:45:02 10° NW
SJ-6B 3.2 16:38:56 10° SSE 16:42:42 47° ENE 16:46:35 10° N
Tianhe-1 2.3 16:44:10 10° W 16:47:08 41° NNW 16:50:09 10° ENE
USA 308 3.8 16:43:55 10° NNW 16:47:56 38° NE 16:51:48 11° ESE
Helios 1A Rocket 3.2 16:47:33 10° S 16:51:40 73° WSW 16:55:50 10° NNW
MOS 1-B Rocket 4.0 16:45:58 10° NNE 16:52:37 77° ESE 16:58:25 10° S
Resurs 1-3 4.4 16:49:54 10° SE 16:53:52 35° ENE 16:57:52 10° N
ATLAS 5 CENTAUR R/B 3.5 16:48:14 10° NW 16:54:00 46° WSW 17:00:35 10° S
Cosmos 2278 Rocket 2.6 16:53:10 10° SSW 16:58:48 71° WNW 17:04:27 10° NNE
MOS 1 4.4 16:58:36 10° SSE 17:04:08 59° ENE 17:09:43 10° N
USA 267 3.3 16:58:41 12° SE 17:04:45 76° NE 17:11:18 10° NW
COSMOS 2406 3.3 17:01:56 10° NNW 17:07:36 67° ENE 17:12:27 14° SSE
GPS 2-04 Rocket1 3.0 17:04:32 10° W 17:08:37 58° SSW 17:11:26 19° ESE
Cosmos 1271 Rocket 3.4 17:05:59 12° SSE 17:09:23 36° E 17:13:04 10° NNE
Cosmos 1709 Rocket 3.9 17:03:26 10° N 17:09:34 85° E 17:15:43 10° S
Cosmos 1461 4.0 17:06:31 10° S 17:10:34 29° ESE 17:14:37 10° NE
Delta 2 Rocket 3.8 17:14:37 10° W 17:20:06 83° S 17:23:41 19° ESE
OAO 3 Rocket 3.0 17:17:08 10° W 17:21:46 81° S 17:25:19 17° E
Cosmos 1666 3.3 17:20:47 10° N 17:24:15 36° E 17:25:35 27° ESE
USA 305 2.8 17:20:18 10° NW 17:24:34 87° NE 17:26:57 26° SE
USA 186 4.0 17:23:37 10° SW 17:25:07 15° W 17:26:35 10° WNW
CZ-4C R/B 3.3 17:17:50 10° NW 17:25:31 76° WSW 17:32:51 15° SSE
Meteor 2-6 Rocket 4.1 17:21:48 10° S 17:27:13 83° E 17:32:48 10° N
Cosmos 967 Rocket 4.4 17:21:42 10° SSW 17:27:50 62° ESE 17:34:02 10° NE
Cosmos 1833 Rocket 2.7 17:23:14 10° NNW 17:28:54 80° WSW 17:33:16 17° SSE
Cosmos 1812 3.1 17:28:13 10° SSW 17:32:01 62° W 17:35:51 10° N
CZ-2C R/B 1.2 17:29:00 10° WSW 17:32:58 53° SSE 17:34:29 31° ESE
OBJECT-B 2.9 17:33:45 10° SSW 17:36:27 24° W 17:39:10 10° NW
Cosmos 1515 Rocket 3.9 17:32:15 10° SSW 17:36:37 66° W 17:40:59 10° N
SWARM C 4.5 17:33:34 10° N 17:36:50 61° E 17:37:47 40° SSE
SWARM A 4.1 17:33:40 10° N 17:36:58 64° E 17:37:58 40° SSE
IUS-13 SRM-1 4.4 17:35:37 10° SSW 17:38:57 24° SE 17:48:17 10° E
Cosmos 1937 Rocket 3.9 17:38:51 27° SSE 17:40:54 38° E 17:45:39 10° NE
USA 306 3.1 17:40:09 10° NW 17:44:22 62° SW 17:46:00 34° SSE
SPOT 1/Viking Rocket 4.1 17:44:38 29° ESE 17:46:36 42° ENE 17:51:27 10° N
ISS -0.5 17:46:23 10° WNW 17:48:14 14° NNW 17:50:05 10° N
Cosmos 1869 Rocket 4.3 17:45:11 10° NNE 17:49:09 34° ENE 17:49:44 32° E
Cosmos 2228 Rocket 3.0 17:47:11 30° SSE 17:49:15 65° E 17:53:42 10° NNE
Meteor 1-27 Rocket 3.9 17:45:57 22° SSE 17:49:42 60° E 17:55:32 10° NNE
MetOp-B 4.3 17:48:03 31° SE 17:50:29 59° ENE 17:55:45 10° N
Cosmos 44 4.2 17:46:23 10° NNW 17:51:25 39° NE 17:53:17 29° E
Cosmos 1538 Rocket 4.4 17:46:16 10° NNW 17:51:31 60° WSW 17:54:52 22° S
Milstar 3 4.3 17:34:40 10° WSW 17:53:18 62° S 18:00:06 24° ESE
Resurs 01 Rocket 1.6 17:53:11 31° S 17:55:15 81° WSW 17:59:42 10° NNW
DNEPR-1 R/B 4.3 17:49:49 10° SSW 17:56:18 82° WNW 18:01:36 10° NNE
IGS 5A 3.4 17:58:22 39° S 17:59:50 79° WSW 18:03:59 10° NNW
Cosmos 1707 Rocket 4.4 18:00:33 32° E 18:00:33 32° E 18:04:11 10° NNE
CARTOSAT-1 4.4 18:01:21 32° E 18:01:38 32° ENE 18:05:28 10° N
Cosmos 1867 4.1 18:02:53 37° ESE 18:02:53 37° ESE 18:07:43 10° NE
SPOT 3 Rocket 3.5 18:01:05 31° S 18:03:35 80° WSW 18:08:45 10° NNW
NOSS 3-4 (A) 3.9 17:57:24 10° NNW 18:04:40 83° WSW 18:08:52 32° SSE
NOSS 3-4 (C) 3.9 17:57:30 10° NNW 18:04:48 84° WSW 18:08:57 32° SSE
Cosmos 1680 Rocket 3.8 17:59:43 10° N 18:04:56 54° ENE 18:06:19 42° ESE
Cosmos 2297 3.7 18:00:06 10° SSW 18:05:48 82° WNW 18:11:31 10° NNE
Iridium 4 Rocket 3.8 18:05:22 23° S 18:09:11 81° W 18:15:07 10° N
SJ 16-02 4.2 18:07:35 10° WSW 18:10:36 18° WNW 18:13:39 10° NNW
USA 307 3.9 18:10:01 10° WNW 18:13:52 34° SW 18:14:29 32° SSW
Cosmos 372 Rocket 4.3 18:16:56 44° E 18:16:56 44° E 18:21:32 10° NNE
Cosmos 1943 Rocket 2.1 18:12:13 15° SSW 18:16:53 89° WNW 18:22:31 10° NNE
ATLAS 2AS CENTAUR R/B 2.7 18:10:43 10° NNW 18:17:56 70° ENE 18:20:20 42° SE
Terra 3.0 18:20:53 27° ENE 18:20:53 27° ENE 18:24:49 10° NNE
Cosmos 2082 Rocket 2.7 18:18:29 10° NNW 18:23:56 54° WSW 18:26:00 35° SSW
Tianhe-1 2.9 18:21:21 10° WNW 18:24:08 28° N 18:24:13 28° N
USA 308 4.4 18:24:12 10° WNW 18:27:45 25° SW 18:27:56 25° SW
Meteor 1-11 Rocket 3.9 18:23:24 10° NNW 18:29:18 71° W 18:31:23 41° SSW
Cosmos 1898 Rocket 4.4 18:26:04 10° SW 18:31:09 47° WNW 18:36:18 10° N
Cosmos 1733 Rocket 4.4 18:28:06 10° NNE 18:31:00 28° NE 18:31:00 28° NE
Cosmos 1544 4.0 18:32:29 10° N 18:35:05 45° N 18:35:05 45° N
Cosmos 1340 Rocket 3.2 18:33:37 10° N 18:36:59 59° N 18:36:59 59° N
ARIANE 5 R/B 2.6 18:41:20 77° WNW 18:41:20 77° WNW 18:45:28 10° NNW
Cosmos 2369 Rocket 2.0 18:44:54 69° S 18:45:34 82° ESE 18:51:15 10° NNE
SL-24 DEB 4.3 18:49:44 72° N 18:49:44 72° N 18:53:55 10° N
H-2A R/B 4.5 18:50:23 10° NNE 18:53:05 39° NNE 18:53:05 39° NNE
Cosmos 1818 3.4 18:50:25 10° NNW 18:55:55 87° ENE 18:55:58 87° E
ATLAS CENTAUR R/B 3.5 19:00:22 17° NNE 19:00:22 17° NNE 19:01:22 10° NNE
SL-24 R/B - RUBIN 2 4.2 18:52:48 10° NW 18:57:26 53° W 18:57:26 53° W
SPOT 5 3.0 19:00:38 79° WSW 19:00:38 79° WSW 19:05:59 10° NNW
OAO 3 Rocket 4.5 19:00:35 10° W 19:03:06 31° W 19:03:06 31° W
Cosmos 962 Rocket 4.3 18:59:22 10° N 19:05:31 82° W 19:06:08 72° SSW
Cosmos 1238 Rocket 3.7 19:01:11 10° N 19:05:35 57° NNE 19:05:35 57° NNE
ERS-1 Rocket 3.2 19:09:06 62° W 19:09:06 62° W 19:13:50 10° NNW
Meteor 2-9 Rocket 4.3 19:04:02 10° N 19:09:11 63° NE 19:09:11 63° NE
Meteor 1-18 Rocket 4.1 19:11:58 83° N 19:11:58 83° N 19:17:19 10° N
CZ-2C R/B 4.0 19:08:35 10° W 19:08:47 11° W 19:08:47 11° W
Cosmos 1607 4.2 19:10:31 34° SW 19:13:23 67° WNW 19:19:52 10° NNE
Lacrosse 5 3.5 19:30:41 27° NE 19:30:41 27° NE 19:32:57 10° NE
RESURS DK-1 4.4 19:36:06 10° NNW 19:38:05 27° N 19:38:05 27° N
Cosmos 2366 rocket 4.0 19:34:52 10° N 19:40:47 76° WNW 19:40:47 76° WNW
Cosmos 2181 Rocket 4.5 19:41:01 49° W 19:41:33 50° W 19:47:29 10° N
Meteor 2-4 Rocket 4.1 19:46:21 61° NNW 19:46:21 61° NNW 19:51:08 10° N
Terra 3.7 19:59:45 23° WNW 19:59:45 23° WNW 20:02:29 10° NW
ATLAS 2AS CENTAUR R/B 4.4 20:03:26 10° WNW 20:07:46 19° WSW 20:07:46 19° WSW
Nadezhda 3 Rocket 4.3 20:21:56 61° NNW 20:21:56 61° NNW 20:27:09 10° N
BREEZE-M DEB (TANK) 4.5 20:10:08 10° NW 20:21:35 53° NNE 20:21:36 53° NNE
Lacrosse 4 Rocket 4.4 21:10:07 11° NE 21:10:07 11° NE 21:10:22 10° NE
Lacrosse 5 4.3 21:09:47 16° NW 21:11:26 18° NNW 21:14:53 10° N
Cosmos 2227 Rocket 3.5 21:20:53 10° N 21:25:39 34° NE 21:25:39 34° NE
Cosmos 2297 Rocket 3.2 21:22:26 10° N 21:26:54 42° NE 21:26:54 42° NE
SeaSat 1 4.0 21:23:16 10° NNE 21:25:51 31° NE 21:25:51 31° NE
COSMOS 2455 3.6 21:41:26 10° NNW 21:45:33 46° NNW 21:45:33 46° NNW
Cosmos 1727 Rocket 4.5 21:51:54 55° NW 21:51:54 55° NW 21:57:11 10° N
Resurs 1-4 Rocket 3.8 21:47:15 10° NE 21:50:34 25° ENE 21:50:34 25° ENE
CZ-2D R/B 3.5 21:56:34 10° NNE 22:00:21 31° ENE 22:00:21 31° ENE
Cosmos 1459 Rocket 4.1 22:09:47 10° N 22:15:12 70° NNW 22:15:12 70° NNW
Cosmos 2219 4.0 22:14:26 10° NNW 22:18:20 44° NW 22:18:20 44° NW
Cosmos 1725 Rocket 4.2 22:16:22 10° N 22:22:30 59° E 22:22:47 58° E
SL-16 R/B 3.3 22:20:58 38° ESE 22:22:34 46° ENE 22:28:29 10° N
Cosmos 2016 Rocket 3.9 22:26:55 10° N 22:32:57 83° NE 22:32:57 83° NE
Helios 1B rocket 4.1 22:30:02 10° NNE 22:32:23 32° NE 22:32:23 32° NE
Cosmos 1697 Rocket 3.5 22:36:05 41° NW 22:36:05 41° NW 22:40:49 10° N
APEX 4.4 22:31:22 10° NNW 22:35:31 62° N 22:35:31 62° N
Cosmos 2173 Rocket 4.4 22:32:05 10° NNW 22:37:21 52° WNW 22:37:21 52° WNW
Cosmos 407 Rocket 3.8 22:33:57 10° NNW 22:38:38 65° NNE 22:38:38 65° NNE
Lacrosse 4 Rocket 3.4 22:46:24 23° NNW 22:46:24 23° NNW 22:49:00 10° N
Cosmos 1980 Rocket 2.4 22:50:30 63° NW 22:50:30 63° NW 22:55:49 10° NNE
Cosmos 1624 Rocket 4.4 22:53:05 57° NW 22:53:05 57° NW 22:57:45 10° N
Cosmos 1025 Rocket 4.5 22:56:52 31° NNW 22:56:52 31° NNW 22:59:29 10° N
Cosmos 1626 4.3 22:57:51 21° NNW 22:57:51 21° NNW 22:59:17 10° N
GP-B 4.0 22:52:20 10° NNE 22:56:15 44° ENE 22:56:15 44° ENE
NOSS 3-2 (A) 3.7 22:58:25 47° ESE 22:58:38 47° ESE 23:04:21 10° NE
Cosmos 2285 Rocket 4.0 23:01:12 65° W 23:01:43 68° WNW 23:08:09 10° NNE
USA 281 3.1 23:00:31 55° SSE 23:02:10 88° WSW 23:08:47 10° NNW
SL-19 R/B 4.0 22:58:46 10° NNE 23:04:12 88° WNW 23:04:12 88° WNW
Cosmos 2061 Rocket 4.1 22:58:05 10° NNW 23:04:18 57° W 23:04:20 57° W
ADEOS II 2.2 23:03:03 10° NNE 23:08:18 66° ESE 23:08:44 63° SE
Cosmos 2227 Rocket 3.8 23:05:05 10° NW 23:07:26 21° WNW 23:07:26 21° WNW
Cosmos 1954 Rocket 4.3 23:04:46 10° N 23:10:02 63° ENE 23:11:29 45° SE
Cosmos 2297 Rocket 4.2 23:07:27 10° NW 23:08:40 14° WNW 23:08:40 14° WNW
SEDSat Delta rocket 4.4 23:13:36 38° SE 23:13:36 38° SE 23:17:41 10° E
Cosmos 1452 Rocket 3.6 23:12:01 61° SE 23:12:28 63° ESE 23:17:41 10° NNE
USA 238 DEB 4.0 23:13:45 42° SSE 23:15:21 51° ESE 23:21:48 10° NE
Cosmos 2056 Rocket 4.3 23:15:40 36° WNW 23:15:40 36° WNW 23:20:05 10° N
USA 238 4.0 23:13:50 42° SSE 23:15:27 51° ESE 23:21:53 10° NE
Cosmos 1140 Rocket 4.1 23:15:29 10° NNW 23:19:24 42° WNW 23:19:24 42° WNW
USA 215 3.2 23:14:18 10° SE 23:20:52 90° NNE 23:27:25 10° NW
CENTAUR R/B 2.8 23:19:37 41° SSE 23:20:55 48° ESE 23:27:05 10° NE
Cosmos 2278 4.4 23:21:29 39° WNW 23:21:58 40° WNW 23:27:19 10° N
Meteor 2-5 Rocket 3.6 23:22:57 63° WSW 23:23:29 67° W 23:29:03 10° N
Cosmos 2082 4.4 23:23:47 10° NW 23:28:04 37° W 23:28:04 37° W
Cosmos 405 3.9 23:27:33 10° N 23:30:12 47° NNE 23:30:12 47° NNE
DELTA 2 DEB (DPAF) 4.3 23:30:16 54° SE 23:31:09 71° ENE 23:35:36 10° N
Resurs 1-4 Rocket 3.1 23:26:52 10° N 23:31:28 31° WNW 23:31:39 31° WNW
SL-16 R/B 2.2 23:30:45 53° S 23:32:05 76° ESE 23:37:46 10° NNE
Cosmos 2228 3.4 23:30:35 10° N 23:34:51 60° E 23:35:55 45° SE
Atlas Centaur 2 3.1 23:34:13 42° SW 23:36:28 53° S 23:43:40 10° E
OAO 2 Rocket 3.2 23:37:26 61° WSW 23:38:15 75° S 23:43:33 10° ESE
CZ-2D R/B 3.3 23:36:49 10° NNW 23:41:13 27° WNW 23:41:40 26° WNW
OAO 3 Copernicus 4.2 23:42:15 62° SW 23:42:59 75° S 23:48:03 10° E
Cosmos 1300 4.0 23:40:10 10° NNW 23:42:29 30° NW 23:42:29 30° NW
H-2A R/B 3.4 23:48:34 13° SE 23:48:34 13° SE 23:49:42 10° ESE
Cosmos 1726 Rocket 4.0 23:46:56 10° N 23:51:17 59° E 23:53:52 23° SSE
IRS-1D 3.7 23:46:18 10° N 23:51:33 59° WNW 23:52:56 44° SW
Cosmos 1606 Rocket 3.5 23:48:51 10° N 23:53:18 83° E 23:55:00 38° SSE
CZ-4B R/B 4.1 23:48:22 10° NNE 23:53:21 52° E 23:56:24 23° SSE
Cosmos 1340 4.3 23:55:25 22° NW 23:55:25 22° NW 23:57:40 10° NNW
SL-8 R/B 4.5 23:53:40 34° SSE 23:54:41 39° SE 23:59:07 10° ENE
